This demonstration page uses our WeatherBlox Daily Observations layout. Learn more.

Left ArrowRight Arrow

41.12389, -100.76542

Hourly Observations for June 28, 2022

Temp ( °F °C ) Dew Point ( °F °C ) Humidity (%) Winds ( mph kmh ) Pressure ( in mb ) Visibility ( mi km ) Precip ( " mm )
12:53 am 00:53 Clear 63 17.2 47 8.3 56 56 S 9 15 30.16 1021 10 16 0.00 0.00
1:53 am 01:53 Clear 61 16.1 48 8.9 63 63 S 7 11 30.15 1021 10 16 0.00 0.00
2:53 am 02:53 Clear 60 15.6 48 8.9 65 65 S 8 13 30.13 1020 10 16 0.00 0.00
3:53 am 03:53 Clear 59 15 48 8.9 67 67 S 6 9 30.12 1020 10 16 0.00 0.00
4:53 am 04:53 Clear 57 13.9 48 8.9 72 72 Calm 30.12 1020 10 16 0.00 0.00
5:53 am 05:53 Clear 57 13.9 47 8.3 69 69 VRB 3 6 30.12 1020 10 16 0.00 0.00
6:53 am 06:53 Sunny 54 12.2 48 8.9 80 80 Calm 30.14 1021 10 16 0.00 0.00
7:53 am 07:53 Sunny 59 15 50 10 72 72 Calm 30.14 1021 10 16 0.00 0.00
8:53 am 08:53 Sunny 67 19.4 53 11.7 61 61 SW 6 9 30.13 1020 10 16 0.00 0.00
9:53 am 09:53 Sunny 73 22.8 55 12.8 53 53 SW 7 11 30.12 1020 10 16 0.00 0.00
10:53 am 10:53 Sunny 78 25.6 56 13.3 47 47 NNW 3 6 30.11 1020 10 16 0.00 0.00
11:53 am 11:53 Sunny 82 27.8 56 13.3 41 41 SE 5 7 30.10 1019 10 16 0.00 0.00
12:53 pm 12:53 Sunny 87 30.6 55 12.8 34 34 Calm 30.08 1019 10 16 0.00 0.00
1:53 pm 13:53 Sunny 92 33.3 54 12.2 28 28 VRB 5 7 30.05 1018 10 16 0.00 0.00
2:53 pm 14:53 Sunny 95 35 46 7.8 19 19 undefined N/A 30.03 1017 10 16 0.00 0.00
3:53 pm 15:53 Sunny 97 36.1 46 7.8 17 17 Calm 30.01 1016 10 16 0.00 0.00
4:53 pm 16:53 Sunny 97 36.1 45 7.2 17 17 VRB 6 9 29.99 1016 10 16 0.00 0.00
5:53 pm 17:53 Sunny 98 36.7 44 6.7 16 16 Calm 29.98 1015 10 16 0.00 0.00
6:53 pm 18:53 Sunny 94 34.4 51 10.6 23 23 ESE 7 11 29.97 1015 10 16 0.00 0.00
7:53 pm 19:53 Mostly Sunny 92 33.3 53 11.7 27 27 SE 7 11 29.96 1015 10 16 0.00 0.00
8:53 pm 20:53 Sunny 88 31.1 45 7.2 22 22 SE 8 13 29.96 1015 10 16 0.00 0.00
9:53 pm 21:53 Clear 76 24.4 50 10 40 40 ESE 8 13 29.99 1016 10 16 0.00 0.00
10:53 pm 22:53 Clear 72 22.2 52 11.1 50 50 ESE 8 13 30.01 1016 10 16 0.00 0.00
11:53 pm 23:53 Clear 69 20.6 52 11.1 55 55 ESE 7 11 30.01 1016 10 16 0.00 0.00

Powered by AerisWeather